Weather History for KSQL - March, 2013

Change the Weather History Date:

Monday, March 18, 2013

  Actual Average Record
Temperature  
Mean Temperature 55 °F -  
Max Temperature 64 °F 66 °F 81 °F (1960)
Min Temperature 46 °F 44 °F 35 °F (1955)
Degree Days  
Heating Degree Days 10    
Growing Degree Days 5 (Base 50)    
Moisture  
Dew Point 43 °F    
Average Humidity 73    
Maximum Humidity 82    
Minimum Humidity 52    
Precipitation  
Precipitation 0.00 in - - ()
Sea Level Pressure  
Sea Level Pressure 30.10 in    
Wind  
Wind Speed 2 mph (WNW)    
Max Wind Speed 12 mph    
Max Gust Speed 20 mph    
Visibility 9 miles    
Events      
Averages and records for this station are not official NWS values.
T = Trace of Precipitation, MM = Missing Value Source: NWS Daily Summary

Daily Weather History Graph

Daily Weather History Graph

Search for Another Location

Airport or City:

Trip Planner

Search our weather history database for the weather conditions in past years. The results will help you decide how hot, cold, wet, or windy it might be!

Date:

Astronomy

Mar. 18, 2013 Rise Set
Actual Time 7:15 AM PDT 7:19 PM PDT
Civil Twilight 6:48 AM PDT 7:45 PM PDT
Nautical Twilight 6:18 AM PDT 8:15 PM PDT
Astronomical Twilight 5:47 AM PDT 8:46 PM PDT
Moon 11:25 AM PDT (3/18) 1:16 AM PDT (3/18)
Length of Visible Light 12h 56m
Length of Day
12h 04m
Waxing Crescent, 41% of the Moon is Illuminated
Mar 18
Waxing Crescent
Mar 19
First Quarter
Mar 27
Full
Apr 2
Last Quarter
Apr 10
New

Hourly Weather History & Observations

Time (PDT) Temp. Windchill Dew Point Humidity Pressure Visibility Wind Dir Wind Speed Gust Speed Precip Events Conditions
12:10 AM 50.0 °F - 41.0 °F 71% 30.10 in 10.0 mi Calm Calm - N/A   Clear
12:30 AM 50.0 °F - 41.0 °F 71% 30.10 in 10.0 mi Calm Calm - N/A   Clear
12:55 AM 50.0 °F - 41.0 °F 71% 30.10 in 10.0 mi SW 5.8 mph - N/A   Clear
1:10 AM 50.0 °F - 41.0 °F 71% 30.09 in 10.0 mi Calm Calm - N/A   Clear
1:30 AM 48.2 °F - 41.0 °F 76% 30.10 in 10.0 mi Calm Calm - N/A   Clear
1:50 AM 48.2 °F - 41.0 °F 76% 30.11 in 10.0 mi NW 3.5 mph - N/A   Clear
2:10 AM 48.2 °F - 41.0 °F 76% 30.10 in 10.0 mi Calm Calm - N/A   Clear
2:30 AM 48.2 °F - 41.0 °F 76% 30.10 in 10.0 mi Calm Calm - N/A   Clear
2:50 AM 48.2 °F - 41.0 °F 76% 30.10 in 10.0 mi Calm Calm - N/A   Clear
3:10 AM 46.4 °F - 41.0 °F 81% 30.09 in 10.0 mi Calm Calm - N/A   Clear
3:30 AM 46.4 °F - 41.0 °F 81% 30.08 in 10.0 mi Calm Calm - N/A   Clear
3:50 AM 46.4 °F - 41.0 °F 81% 30.08 in 10.0 mi Calm Calm - N/A   Clear
4:10 AM 46.4 °F - 41.0 °F 81% 30.07 in 10.0 mi Calm Calm - N/A   Clear
4:30 AM 46.4 °F - 41.0 °F 81% 30.07 in 10.0 mi Calm Calm - N/A   Clear
4:50 AM 46.4 °F - 41.0 °F 81% 30.07 in 10.0 mi Calm Calm - N/A   Clear
5:15 AM 46.4 °F - 41.0 °F 81% 30.07 in 10.0 mi Calm Calm - N/A   Clear
5:30 AM 46.4 °F 45.2 °F 41.0 °F 81% 30.08 in 10.0 mi WNW 3.5 mph - N/A   Clear
5:50 AM 46.4 °F 45.2 °F 41.0 °F 81% 30.08 in 10.0 mi North 3.5 mph - N/A   Clear
6:10 AM 46.4 °F 45.2 °F 41.0 °F 81% 30.08 in 10.0 mi WSW 3.5 mph - N/A   Clear
6:30 AM 46.4 °F 45.2 °F 41.0 °F 81% 30.09 in 10.0 mi SSW 3.5 mph - N/A   Clear
6:50 AM 46.4 °F - 41.0 °F 81% 30.09 in 10.0 mi Calm Calm - N/A   Clear
7:49 AM 46.4 °F - 41.0 °F 81% 30.11 in 10.0 mi Calm Calm - N/A   Partly Cloudy
8:47 AM 50.0 °F - 44.6 °F 82% 30.12 in 8.0 mi SE 3.5 mph - N/A   Scattered Clouds
9:50 AM 51.8 °F - 46.4 °F 82% 30.13 in 7.0 mi ENE 3.5 mph - N/A   Mostly Cloudy
10:47 AM 53.6 °F - 46.4 °F 77% 30.13 in 7.0 mi Calm Calm - N/A   Mostly Cloudy
11:47 AM 57.2 °F - 48.2 °F 72% 30.12 in 7.0 mi ENE 4.6 mph - N/A   Mostly Cloudy
12:49 PM 57.2 °F - 48.2 °F 72% 30.11 in 7.0 mi North 5.8 mph - N/A   Mostly Cloudy
1:47 PM 59.0 °F - 48.2 °F 67% 30.09 in 7.0 mi NE 6.9 mph - N/A   Mostly Cloudy
2:47 PM 59.0 °F - 46.4 °F 63% 30.07 in 7.0 mi North 6.9 mph - N/A   Overcast
3:55 PM 64.4 °F - 46.4 °F 52% 30.06 in 7.0 mi North 4.6 mph - N/A   Mostly Cloudy
4:50 PM 62.6 °F - 46.4 °F 55% 30.06 in 7.0 mi NNE 4.6 mph - N/A   Mostly Cloudy
5:47 PM 62.6 °F - 44.6 °F 52% 30.06 in 7.0 mi NNW 5.8 mph - N/A   Mostly Cloudy
6:47 PM 59.0 °F - 46.4 °F 63% 30.06 in 7.0 mi NW 5.8 mph - N/A   Mostly Cloudy
7:55 PM 53.6 °F - 44.6 °F 72% 30.11 in 10.0 mi SW 9.2 mph 19.6 mph N/A   Partly Cloudy
9:10 PM 53.6 °F - 42.8 °F 67% 30.11 in 10.0 mi West 11.5 mph 19.6 mph N/A   Overcast
9:30 PM 53.6 °F - 44.6 °F 72% 30.13 in 10.0 mi West 8.1 mph - N/A   Overcast
9:50 PM 53.6 °F - 42.8 °F 67% 30.13 in 10.0 mi West 4.6 mph - N/A   Overcast
10:10 PM 53.6 °F - 42.8 °F 67% 30.14 in 10.0 mi West 4.6 mph - N/A   Overcast
10:35 PM 53.6 °F - 42.8 °F 67% 30.14 in 10.0 mi WSW 3.5 mph - N/A   Overcast
10:50 PM 53.6 °F - 41.0 °F 62% 30.15 in 10.0 mi West 6.9 mph - N/A   Overcast
11:10 PM 53.6 °F - 42.8 °F 67% 30.15 in 10.0 mi West 6.9 mph - N/A   Overcast
11:30 PM 51.8 °F - 44.6 °F 76% 30.14 in 10.0 mi SW 3.5 mph - N/A   Mostly Cloudy
11:50 PM 53.6 °F - 41.0 °F 62% 30.13 in 10.0 mi SSE 3.5 mph - N/A   Partly Cloudy